CW9988 Weather Reports


time (UTC)temp
C
wind
direction
speed
KPH
gust
KPH
rain 1hr
cm
rain 24hr
cm
rain mn
cm
humidity
%
barometer
mb
20260508010039 2 0 0.0 0.0 0.00 0.00 0.00 87 1018.9
20260508004538 2 0 0.0 0.0 0.00 0.00 0.00 87 1018.8
20260508003036 2 0 0.0 0.0 0.00 0.00 0.00 86 1018.8
20260508001536 3 0 0.0 0.0 0.00 0.00 0.00 87 1018.7
20260508000042 2 0 0.0 0.0 0.00 0.00 0.00 88 1019.0
20260507234538 2 0 0.0 0.0 0.00 0.00 0.00 88 1018.9
20260507233043 2 0 0.0 0.0 0.00 0.00 0.00 87 1018.9
20260507231538 2 0 0.0 0.0 0.00 0.00 0.00 85 1018.9
20260507230045 2 0 0.0 0.0 0.00 0.00 0.00 85 1019.0
20260507224543 2 0 0.0 0.0 0.00 0.00 0.00 84 1019.1
20260507223038 2 0 0.0 0.0 0.00 0.00 0.00 83 1019.1
20260507221544 3 0 0.0 0.0 0.00 0.00 0.00 83 1018.9
20260507220042 3 0 0.0 0.0 0.00 0.00 0.00 82 1018.9
20260507214549 3 0 0.0 0.0 0.00 0.00 0.00 81 1018.9
20260507213044 3 0 0.0 0.0 0.00 0.00 0.00 79 1018.8
20260507211538 4 0 0.0 0.0 0.00 0.00 0.00 78 1018.7
20260507210038 4 0 0.0 0.0 0.00 0.00 0.00 77 1018.8
20260507204538 5 0 0.0 0.0 0.00 0.00 0.00 74 1018.9
20260507203043 6 0 0.0 0.0 0.00 0.00 0.00 72 1018.9
20260507201549 6 0 0.0 0.0 0.00 0.00 0.00 70 1018.7
20260507200055 6 0 0.0 0.0 0.00 0.00 0.00 68 1018.7
20260507194538 7 0 0.0 0.0 0.00 0.00 0.00 67 1018.5
20260507193047 7 0 0.0 0.0 0.00 0.00 0.00 65 1018.5
20260507191541 8 0 0.0 1.6 0.00 0.00 0.00 61 1018.3
20260507190040 8 269 0.0 6.4 0.00 0.00 0.00 60 1018.1
20260507184541 9 272 1.6 6.4 0.00 0.00 0.00 58 1017.9
20260507183050 10 0 0.0 6.4 0.00 0.00 0.00 56 1017.9
20260507181548 10 0 1.6 11.3 0.00 0.00 0.00 54 1017.8
20260507180051 10 0 0.0 14.5 0.00 0.00 0.00 53 1017.8
20260507174541 11 0 1.6 14.5 0.00 0.00 0.00 51 1017.7
20260507173039 11 276 6.4 14.5 0.00 0.00 0.00 51 1017.8
20260507171538 11 0 6.4 16.1 0.00 0.00 0.00 52 1017.8
20260507170038 12 279 0.0 19.3 0.00 0.00 0.00 50 1017.6
20260507164543 12 0 0.0 17.7 0.00 0.00 0.00 50 1017.6
20260507163041 12 240 4.8 14.5 0.00 0.00 0.00 49 1017.7
20260507161540 12 269 4.8 19.3 0.00 0.00 0.00 51 1017.5
20260507160041 12 289 8.0 19.3 0.00 0.00 0.00 50 1017.7
20260507154542 12 283 4.8 16.1 0.00 0.00 0.00 50 1017.7
20260507153038 13 282 12.9 22.5 0.00 0.00 0.00 47 1017.7
20260507151543 13 271 6.4 19.3 0.00 0.00 0.00 46 1017.8
20260507150043 13 0 6.4 20.9 0.00 0.00 0.00 46 1017.8
20260507144539 13 233 8.0 20.9 0.00 0.00 0.00 46 1017.7
20260507143039 13 257 4.8 19.3 0.00 0.00 0.00 46 1017.8
20260507141539 13 269 11.3 22.5 0.00 0.00 0.00 44 1017.9
20260507140036 13 0 11.3 20.9 0.00 0.00 0.00 43 1018.0
20260507134542 13 277 9.7 22.5 0.00 0.00 0.00 44 1017.9
20260507133056 13 278 9.7 24.1 0.00 0.00 0.00 46 1017.9
20260507131549 13 272 11.3 22.5 0.00 0.00 0.00 44 1017.8
20260507130054 13 259 9.7 25.7 0.00 0.00 0.00 42 1017.8
20260507124537 14 271 9.7 19.3 0.00 0.00 0.00 41 1017.7
20260507123043 14 0 6.4 19.3 0.00 0.00 0.00 41 1017.6
20260507121540 14 286 12.9 25.7 0.00 0.00 0.00 41 1017.7
20260507120052 15 232 8.0 20.9 0.00 0.00 0.00 41 1017.7
20260507114612 15 0 1.6 22.5 0.00 0.00 0.00 41 1017.6
20260507113038 15 0 11.3 22.5 0.00 0.00 0.00 40 1017.6
20260507111537 15 0 8.0 20.9 0.00 0.00 0.00 39 1017.8
20260507110043 14 294 3.2 20.9 0.00 0.00 0.00 39 1017.7
20260507104541 13 0 0.0 14.5 0.00 0.00 0.00 35 1017.6
20260507103040 15 0 1.6 9.7 0.00 0.00 0.00 36 1017.8
20260507101543 13 247 1.6 12.9 0.00 0.00 0.00 39 1017.6
20260507100039 14 0 0.0 11.3 0.00 0.00 0.00 37 1017.6
20260507094536 13 0 1.6 14.5 0.00 0.00 0.00 40 1017.8
20260507093047 13 261 0.0 14.5 0.00 0.00 0.00 42 1017.9
20260507091546 12 0 1.6 14.5 0.00 0.00 0.00 43 1017.6
20260507090041 13 0 0.0 16.1 0.00 0.00 0.00 42 1017.8
20260507084548 13 265 8.0 19.3 0.00 0.00 0.00 44 1017.6
20260507083044 12 280 1.6 16.1 0.00 0.00 0.00 46 1017.7
20260507081540 12 284 6.4 17.7 0.00 0.00 0.00 49 1017.6
20260507080044 11 271 0.0 17.7 0.00 0.00 0.00 52 1017.5
20260507074542 10 269 3.2 12.9 0.00 0.00 0.00 56 1017.5
20260507073036 8 0 0.0 6.4 0.00 0.00 0.00 63 1017.5
20260507071535 7 0 0.0 3.2 0.00 0.00 0.00 69 1017.4
20260507070042 6 0 0.0 3.2 0.00 0.00 0.00 73 1017.6
20260507064540 5 0 0.0 0.0 0.00 0.00 0.00 78 1017.4
20260507063038 5 0 0.0 0.0 0.00 0.00 0.00 78 1017.3
20260507061538 4 0 0.0 0.0 0.00 0.00 0.00 82 1017.3
20260507060036 3 0 0.0 0.0 0.00 0.00 0.00 84 1017.2
20260507054539 3 0 0.0 0.0 0.00 0.00 0.00 86 1017.3
20260507053040 2 0 0.0 0.0 0.00 0.00 0.00 89 1017.2
20260507051541 2 0 0.0 0.0 0.00 0.00 0.00 90 1017.2
20260507050038 1 0 0.0 0.0 0.00 0.00 0.00 90 1017.1
20260507044538 1 0 0.0 0.0 0.00 0.00 0.00 91 1017.0
20260507043044 0 0 0.0 0.0 0.00 0.00 0.00 92 1016.9
20260507041543 0 0 0.0 0.0 0.00 0.00 0.00 92 1016.7
20260507040043 0 0 0.0 0.0 0.00 0.00 0.00 91 1016.9
20260507034539 0 0 0.0 0.0 0.00 0.00 0.00 90 1016.7
20260507033038 0 0 0.0 0.0 0.00 0.00 0.00 90 1016.6
20260507031537 0 0 0.0 0.0 0.00 0.00 0.00 89 1016.7
20260507030044 0 0 0.0 0.0 0.00 0.00 0.00 89 1016.6
20260507024542 1 0 0.0 0.0 0.00 0.00 0.00 88 1016.5
20260507023046 1 0 0.0 0.0 0.00 0.00 0.00 89 1016.4
20260507021544 1 0 0.0 0.0 0.00 0.00 0.00 88 1016.3
20260507020059 1 0 0.0 0.0 0.00 0.00 0.00 89 1016.3
20260507014537 1 0 0.0 0.0 0.00 0.00 0.00 89 1016.3
20260507013051 1 0 0.0 0.0 0.00 0.00 0.00 86 1016.3
20260507011542 2 0 0.0 0.0 0.00 0.00 0.00 87 1016.3